When you browse on this site, cookies collect data to enhance your experience and personalize the content and advertising you see.
Visit our Privacy Policy to learn more. By continuing to use the site, you agree to this use of cookies and data.
  • In Lithuania
  • List of Countries
  • For 7 days
  • Water Temperature
  • Satellite Maps
  • Weather Map
  • Weather Widgets
  • user-avatar
    Login

    Hourly Weather Lunevka

    Today, 21 March, Thursday

    Time Temperature Precipitation Wind Pressure Humidity
    00:00 -3°C° 0 mm 2 mps 746 mmHg 91%
    01:00 -3°C° 0 mm 2 mps 746 mmHg 91%
    02:00 -3°C° 0 mm 2 mps 746 mmHg 91%
    03:00 -3°C° 0 mm 2 mps 745 mmHg 91%
    04:00 -4°C° 0 mm 2 mps 745 mmHg 91%
    05:00 -4°C° 0 mm 2 mps 745 mmHg 91%
    06:00 -4°C° 0 mm 2 mps 744 mmHg 91%
    07:00 -4°C° 0 mm 3 mps 744 mmHg 89%
    08:00 -4°C° 0 mm 3 mps 744 mmHg 87%
    09:00 -2°C° 0 mm 3 mps 744 mmHg 85%
    10:00 -1°C° 0 mm 3 mps 744 mmHg 85%
    11:00 -1°C° 0 mm 3 mps 743 mmHg 85%
    12:00 -1°C° 0 mm 4 mps 743 mmHg 86%
    13:00 0°C° 0.1 mm 3 mps 743 mmHg 87%
    14:00 0°C° 0.1 mm 3 mps 743 mmHg 89%
    15:00 0°C° 0.1 mm 3 mps 743 mmHg 91%
    16:00 0°C° 0 mm 3 mps 742 mmHg 91%
    17:00 +1°C° 0 mm 2 mps 742 mmHg 92%
    18:00 +1°C° 0 mm 2 mps 742 mmHg 92%
    19:00 -1°C° 0 mm 2 mps 743 mmHg 93%
    20:00 -1°C° 0 mm 2 mps 743 mmHg 93%
    21:00 -1°C° 0 mm 2 mps 743 mmHg 94%
    22:00 -1°C° 0 mm 2 mps 743 mmHg 94%
    23:00 -1°C° 0 mm 3 mps 743 mmHg 94%

    Tomorrow, 22 March, Friday

    Time Temperature Precipitation Wind Pressure Humidity
    00:00 -2°C° 0 mm 3 mps 743 mmHg 93%
    01:00 -2°C° 0 mm 3 mps 743 mmHg 93%
    02:00 -2°C° 0 mm 2 mps 743 mmHg 92%
    03:00 -3°C° 0 mm 2 mps 742 mmHg 92%
    04:00 -4°C° 0 mm 3 mps 742 mmHg 91%
    05:00 -4°C° 0 mm 3 mps 741 mmHg 90%
    06:00 -4°C° 0 mm 3 mps 741 mmHg 90%
    07:00 -3°C° 0 mm 4 mps 740 mmHg 89%
    08:00 -2°C° 0 mm 4 mps 740 mmHg 87%
    09:00 -1°C° 0 mm 5 mps 739 mmHg 86%
    10:00 -2°C° 0.3 mm 6 mps 738 mmHg 89%
    11:00 -2°C° 0.3 mm 7 mps 737 mmHg 91%
    12:00 -1°C° 0.3 mm 8 mps 736 mmHg 94%
    13:00 -1°C° 0.8 mm 7 mps 735 mmHg 91%
    14:00 0°C° 0.8 mm 7 mps 735 mmHg 87%
    15:00 +1°C° 0.8 mm 6 mps 735 mmHg 84%
    16:00 -1°C° 0 mm 7 mps 735 mmHg 79%
    17:00 -2°C° 0 mm 7 mps 736 mmHg 73%
    18:00 -2°C° 0 mm 7 mps 736 mmHg 67%
    19:00 -3°C° 0 mm 6 mps 736 mmHg 71%
    20:00 -3°C° 0 mm 6 mps 737 mmHg 75%
    21:00 -4°C° 0 mm 5 mps 737 mmHg 79%
    22:00 -4°C° 0.1 mm 5 mps 737 mmHg 81%
    23:00 -4°C° 0.1 mm 5 mps 736 mmHg 83%

    Day after tomorrow, 23 March, Saturday

    Time Temperature Precipitation Wind Pressure Humidity
    00:00 -4°C° 0.1 mm 5 mps 736 mmHg 85%
    01:00 -4°C° 0.1 mm 5 mps 736 mmHg 86%
    02:00 -4°C° 0.1 mm 5 mps 736 mmHg 86%
    03:00 -4°C° 0.1 mm 5 mps 736 mmHg 86%
    04:00 -4°C° 0.2 mm 5 mps 736 mmHg 87%
    05:00 -4°C° 0.2 mm 5 mps 736 mmHg 88%
    06:00 -4°C° 0.2 mm 5 mps 736 mmHg 89%
    07:00 -4°C° 0.1 mm 5 mps 736 mmHg 88%
    08:00 -4°C° 0.1 mm 6 mps 737 mmHg 87%
    09:00 -3°C° 0.1 mm 6 mps 737 mmHg 85%
    10:00 -3°C° 0 mm 6 mps 738 mmHg 86%
    11:00 -2°C° 0 mm 6 mps 739 mmHg 86%
    12:00 -2°C° 0 mm 6 mps 739 mmHg 87%
    13:00 -2°C° 0.1 mm 6 mps 740 mmHg 87%
    14:00 -1°C° 0.1 mm 5 mps 740 mmHg 86%
    15:00 -1°C° 0.1 mm 5 mps 741 mmHg 86%
    16:00 -1°C° 0 mm 5 mps 741 mmHg 86%
    17:00 -1°C° 0 mm 4 mps 741 mmHg 86%
    18:00 0°C° 0 mm 3 mps 742 mmHg 86%
    19:00 -1°C° 0 mm 3 mps 742 mmHg 87%
    20:00 -1°C° 0 mm 2 mps 742 mmHg 88%
    21:00 -1°C° 0 mm 2 mps 743 mmHg 89%
    22:00 -2°C° 0 mm 2 mps 742 mmHg 88%
    23:00 0°C° 0 mm 1 mps 742 mmHg 87%

    24 March, Sunday

    Time Temperature Precipitation Wind Pressure Humidity
    00:00 0°C° 0 mm 1 mps 742 mmHg 87%
    01:00 0°C° 0 mm 1 mps 742 mmHg 86%
    02:00 -1°C° 0 mm 1 mps 742 mmHg 86%
    03:00 -1°C° 0 mm 1 mps 741 mmHg 86%
    04:00 -3°C° 0 mm 2 mps 741 mmHg 87%
    05:00 -3°C° 0 mm 2 mps 740 mmHg 87%
    06:00 -2°C° 0 mm 2 mps 740 mmHg 87%
    07:00 -2°C° 0.1 mm 3 mps 739 mmHg 87%
    08:00 -2°C° 0.1 mm 3 mps 739 mmHg 88%
    09:00 -2°C° 0.1 mm 4 mps 739 mmHg 88%
    10:00 -2°C° 0.5 mm 4 mps 738 mmHg 90%
    11:00 -2°C° 0.5 mm 4 mps 738 mmHg 91%
    12:00 -1°C° 0.5 mm 4 mps 738 mmHg 93%
    13:00 -1°C° 0.1 mm 4 mps 738 mmHg 92%
    14:00 0°C° 0.1 mm 4 mps 738 mmHg 90%
    15:00 0°C° 0.1 mm 5 mps 738 mmHg 89%
    16:00 0°C° 0 mm 4 mps 738 mmHg 84%
    17:00 0°C° 0 mm 4 mps 738 mmHg 79%
    18:00 0°C° 0 mm 4 mps 739 mmHg 74%
    19:00 -1°C° 0 mm 4 mps 739 mmHg 76%
    20:00 -1°C° 0 mm 4 mps 740 mmHg 78%
    21:00 -2°C° 0 mm 4 mps 740 mmHg 80%
    22:00 -2°C° 0 mm 3 mps 740 mmHg 80%
    23:00 -2°C° 0 mm 3 mps 740 mmHg 80%

    25 March, Monday

    Time Temperature Precipitation Wind Pressure Humidity
    00:00 -2°C° 0 mm 3 mps 740 mmHg 80%
    01:00 -2°C° 0 mm 3 mps 740 mmHg 79%
    02:00 -2°C° 0 mm 3 mps 740 mmHg 78%
    03:00 -2°C° 0 mm 3 mps 740 mmHg 77%
    04:00 -3°C° 0 mm 4 mps 740 mmHg 77%
    05:00 -3°C° 0 mm 4 mps 740 mmHg 77%
    06:00 -3°C° 0 mm 4 mps 739 mmHg 77%
    07:00 -3°C° 0 mm 4 mps 740 mmHg 78%
    08:00 -2°C° 0 mm 4 mps 740 mmHg 79%
    09:00 -2°C° 0 mm 4 mps 740 mmHg 79%
    10:00 -1°C° 0 mm 4 mps 740 mmHg 76%
    11:00 0°C° 0 mm 4 mps 740 mmHg 72%
    12:00 +1°C° 0 mm 3 mps 740 mmHg 68%
    13:00 +2°C° 0 mm 3 mps 740 mmHg 65%
    14:00 +2°C° 0 mm 3 mps 740 mmHg 63%
    15:00 +4°C° 0 mm 2 mps 739 mmHg 60%
    16:00 +3°C° 0 mm 2 mps 739 mmHg 64%
    17:00 +2°C° 0 mm 2 mps 739 mmHg 69%
    18:00 +3°C° 0 mm 1 mps 739 mmHg 73%
    19:00 +1°C° 0 mm 2 mps 738 mmHg 76%
    20:00 +1°C° 0 mm 2 mps 738 mmHg 79%
    21:00 -1°C° 0 mm 3 mps 738 mmHg 82%
    22:00 -1°C° 0 mm 3 mps 738 mmHg 81%
    23:00 -1°C° 0 mm 3 mps 737 mmHg 81%

    26 March, Tuesday

    Time Temperature Precipitation Wind Pressure Humidity
    00:00 -1°C° 0 mm 3 mps 737 mmHg 80%
    01:00 -2°C° 0 mm 3 mps 737 mmHg 79%
    02:00 -2°C° 0 mm 3 mps 736 mmHg 79%
    03:00 -2°C° 0 mm 3 mps 736 mmHg 78%
    04:00 -2°C° 0 mm 3 mps 736 mmHg 78%
    05:00 -2°C° 0 mm 3 mps 735 mmHg 78%
    06:00 -2°C° 0 mm 3 mps 735 mmHg 78%
    07:00 -1°C° 0 mm 3 mps 734 mmHg 76%
    08:00 -2°C° 0 mm 4 mps 734 mmHg 73%
    09:00 -1°C° 0 mm 4 mps 734 mmHg 71%
    10:00 -1°C° 0.1 mm 5 mps 733 mmHg 71%
    11:00 0°C° 0.1 mm 5 mps 732 mmHg 72%
    12:00 -1°C° 0.1 mm 6 mps 732 mmHg 72%
    13:00 -1°C° 0.4 mm 6 mps 731 mmHg 77%
    14:00 -1°C° 0.4 mm 6 mps 731 mmHg 82%
    15:00 -2°C° 0.4 mm 6 mps 730 mmHg 87%
    16:00 -1°C° 0.8 mm 5 mps 729 mmHg 90%
    17:00 -1°C° 0.8 mm 4 mps 729 mmHg 93%
    18:00 0°C° 0.8 mm 3 mps 729 mmHg 96%
    19:00 -1°C° 0.2 mm 4 mps 729 mmHg 94%
    20:00 -1°C° 0.2 mm 4 mps 729 mmHg 93%
    21:00 -1°C° 0.2 mm 5 mps 729 mmHg 92%
    22:00 -2°C° 0 mm 6 mps 730 mmHg 90%
    23:00 -2°C° 0 mm 6 mps 730 mmHg 89%
    Show more